www.pogodaiklimat.ru

Погода и климат >> Архив погоды >> Ирак >> Эль-Фао


ПОГОДА в Эль-Фао

  • Прогноз погоды в Эль-Фао
  • Монитор погоды в Эль-Фао

АРХИВ ПОГОДЫ в Эль-Фао

Время (UTC), дата Ветер
(напр.,м/с)
 
Видим.   Явления Облачность Т
(С)
Тd
(С)
f
(%)
Тe
(С)
Тes
(С)
Комфортность P
(гПа)
Po
(гПа)
Тmin
(С)
Tmax
(С)
R
(мм)
R24
(мм)
S
(см)
06 12.07 СЗ 3 10 км ясно +40.5 +6.5 13 +38 +49 очень
жарко
999.8 999.6 +29.8
09 12.07 СЗ 4 10 км ясно +45.2 +3.4 8 +42 +57 опасность
перегрева
999.6 999.4
12 12.07 СЗ 4 10 км ясно +47.0 +5.1 8 +44 +52 опасность
перегрева
997.6 997.4
15 12.07 СЗ 5 10 км ясно +45.0 +2.9 8 +42 +42 опасность
перегрева
997.2 997.0
18 12.07 СЗ 5 10 км ясно +39.8 +9.3 16 +38 +38 очень
жарко
999.4 999.2 +47.4
21 12.07 СЗ 4 10 км ясно +36.6 +10.7 21 +36 +36 очень
жарко
999.6 999.4
00 13.07 СЗ 3 10 км ясно +34.0 +9.9 23 +33 +33 жарко 999.2 999.0
06 13.07 СЗ 5 10 км ясно +40.6 +5.7 12 +38 +45 очень
жарко
1000.4 1000.2 +31.0
09 13.07 СЗ 9 10 км ясно +45.2 +2.6 8 +42 +44 опасность
перегрева
999.0 998.8
15 13.07 СЗ 5 10 км ясно +43.6 +2.3 8 +40 +40 очень
жарко
998.2 998.0
18 13.07 СЗ 6 10 км ясно +38.8 +7.2 15 +37 +37 очень
жарко
999.8 999.6 +46.4
06 14.07 З 2 10 км ясно +38.0 +6.1 14 +35 +49 очень
жарко
1002.4 1002.2 +28.0
12 14.07 З 3 10 км ясно +43.0 +5.6 10 +40 +50 очень
жарко
1000.4 1000.2
15 14.07 СЗ 2 10 км ясно +40.4 +10.4 17 +39 +40 очень
жарко
1000.2 1000.0
18 14.07 ЮЗ 3 10 км ясно +37.6 +7.9 16 +35 +35 очень
жарко
1001.0 1000.8 +43.6
21 14.07 З 3 10 км ясно +35.0 +11.6 24 +35 +35 очень
жарко
1001.0 1000.8
00 15.07 З 3 10 км ясно +32.0 +12.7 31 +33 +33 жарко 1000.2 1000.0
06 15.07 СЗ 3 10 км ясно +38.0 +10.4 19 +37 +48 очень
жарко
1001.4 1001.2 +28.8
09 15.07 СЗ 6 10 км ясно +42.2 +1.8 8 +39 +47 очень
жарко
1001.0 1000.8
12 15.07 СЗ 4 10 км ясно +43.8 +4.6 9 +41 +48 опасность
перегрева
998.6 998.4
15 15.07 СЗ 4 10 км ясно +42.6 +3.0 9 +39 +40 очень
жарко
997.6 997.4
18 15.07 СЗ 4 10 км ясно +38.0 +6.1 14 +35 +35 очень
жарко
998.8 998.6 +44.4
21 15.07 СЗ 5 10 км ясно +35.5 +8.3 19 +34 +34 очень
жарко
998.4 998.2
00 16.07 СЗ 5 10 км ясно +33.6 +6.8 19 +32 +32 жарко 997.4 997.2
03 16.07 СЗ 3 10 км 1/0
[Ac trans]
+32.0 +9.7 25 +31 +32 жарко 998.4 998.2
06 16.07 СЗ 7 10 км 1/0
[Ac trans]
+40.6 +4.2 11 +38 +41 очень
жарко
998.4 998.2 +30.0
09 16.07 СЗ 9 6000 м пыльный позёмок 1/0
[Ac trans]
+45.0 +1.9 7 +41 +44 опасность
перегрева
997.8 997.6
15 16.07 СЗ 8 10 км 1/0
[Ac trans]
+42.6 -0.9 7 +39 +39 очень
жарко
996.8 996.6
18 16.07 СЗ 4 10 км ясно +38.0 +4.7 13 +35 +35 очень
жарко
998.6 998.4 +46.1
21 16.07 СЗ 4 10 км ясно +34.8 +8.5 20 +33 +33 жарко 999.0 998.8
03 17.07 СЗ 2 10 км 3/0
[Ac trans]
+30.6 +10.5 29 +31 +31 жарко 998.8 998.6
06 17.07 СЗ 8 10 км 5/1 1200 м
[Cu hum Ac trans Ci fib]
+37.8 +8.9 17 +36 +38 очень
жарко
1000.2 1000.0 +28.6
09 17.07 СЗ 11 10 км 6/3 1200 м
[Cu hum Ac trans Ci fib]
+39.0 +7.6 15 +37 +37 очень
жарко
1000.2 1000.0
12 17.07 СЗ 8 10 км 3/1 1200 м
[Cu hum Ac trans]
+42.0 +7.5 13 +40 +41 очень
жарко
999.8 999.6
15 17.07 СЗ 4 10 км 1/1 1200 м
[Cu hum]
+40.6 +9.0 15 +39 +39 очень
жарко
999.2 999.0
03 18.07 СЗ 2 10 км ясно +30.6 +10.5 29 +31 +32 жарко 1000.2 1000.0
06 18.07 СЗ 6 10 км 1/0
[Ac trans]
+37.0 +9.1 18 +35 +40 очень
жарко
999.6 999.4 +28.5
09 18.07 СЗ 5 10 км 3/0
[Ci sp]
+41.2 +9.0 15 +39 +50 очень
жарко
999.6 999.4
12 18.07 СЗ 4 10 км 3/0
[Ci sp]
+44.6 +11.7 15 +44 +51 опасность
перегрева
997.6 997.4
18 18.07 СЗ 4 10 км 4/0
[Ac trans Ci sp]
+40.0 +7.2 14 +38 +38 очень
жарко
998.6 998.4 +46.2
21 18.07 СЗ 6 10 км 4/0
[Ac trans Ci sp]
+37.5 +9.2 18 +36 +36 очень
жарко
998.6 998.4
00 19.07 СЗ 6 10 км 4/0
[Ac trans Ci sp]
+35.0 +8.9 20 +33 +33 жарко 998.6 998.4
03 19.07 СЗ 4 10 км 5/0
[Ac trans Ci sp]
+33.4 +8.2 21 +32 +33 жарко 999.6 999.4

 

Местоположение метеостанции Эль-Фао (Ирак): широта 29.98 долгота 48.50 высота над уровнем моря 2 м.

В архиве по умолчанию представлена погода в Эль-Фао за последнюю неделю. Архивные данные за месяц целиком и за предыдущие месяцы, начиная с января 2011 года, Вы можете получить, выбрав интересующий диапазон дат из раскрывающегося списка и нажав кнопку "Ввод!".


*Определитесь, кто Вы:
робот инопланетянин человек

Внимание! Время в таблицах - всемирное. Для получения местного времени необходимо прибавить поправку, которая равна 3 ч.

Смотрите также архив погоды в соседних городах и на ближайших метеорологических станциях:

Погода на Бубияне (Кувейт) (26 км)
Погода в Абадане (Иран) (50 км)
Погода Остров Файлака (Кувейт) (61 км)
Погода на Метеостанции Sabriyah (Кувейт) (68 км)
Погода в Абдали (Кувейт) (78 км)
Погода в Аль-Шуаиба (Кувейт) (80 км)
Погода в Кувейт Сити (Кувейт) (84 км)
Погода в Басре аэропорт (Ирак) (92 км)
Погода на Экспериментальной ферме (Кувейт) (94 км)
Погода в Басре (Ирак) (95 км)

Пояснения к столбцам:

Ветер - указаны скорость ветра в м/с - средняя за 10 мин, порывы в срок и между сроками (в фигурных скобках) и направление, откуда дует ветер: С - северный, СВ - северо-восточный, В - восточный, ЮВ - юго-восточный, Ю - южный, ЮЗ - юго-западный, З - западный, СЗ - северо-западный.
Видимость - горизонтальная дальность видимости в метрах или километрах. При видимости от 1 до 10 км при отсутствии осадков обычно наблюдается дымка, при ухудшении видимости до 1 км и менее - туман. В сухую погоду видимость может ухудшаться дымом, пылью или мглою.
Явления - указаны атмосферные явления, наблюдавшиеся в срок или в последний час перед сроком; фигурными скобками обозначены явления, наблюдавшиеся между сроками (за 1-3 часа до срока); квадратными скобками обозначены град или гололедные отложения с указанием их диаметра в мм.
Облачность - указаны через наклонную черту общая и нижняя облачность в баллах и высота нижней границы облаков в метрах; квадратными скобками обозначены формы облаков: Ci - перистые, Cs - перисто-слоистые, Cc - перисто-кучевые, Ac - высококучевые, As - высокослоистые, Sc - слоисто-кучевые, Ns - слоисто-дождевые, Cu - кучевые, Cb - кучево-дождевые. Подробнее классификацию облаков см. в Атласе облаков (PDF).
T - Температура воздуха - температура, измеренная на высоте 2 м над землей.
Td - Температура точки росы - температура, при понижении до которой содержащийся в воздухе водяной пар достигнет насыщения.
f - Относительная влажность воздуха - влажноcть воздуха, измеренная на высоте 2 м над землей.
Te - Эффективная температура - температура, которую ощущает одетый по сезону человек в тени. Характеристика душности погоды. При расчете учитывается влияние влажности воздуха и скорости ветра на теплоощущения человека.
Tes - Эффективная температура на солнце - температура, которую ощущает человек, с поправкой на солнечный нагрев. Характеристика знойности погоды. Зависит от высоты солнца над горизонтом, облачности и скорости ветра. Ночью, в пасмурную погоду, а также при ветре 12 м/с и более поправка равна нулю.
P - Атмосферное давление - приведенное к уровню моря атмосферное давление.
Po - Атмосферное давление - измеренное на уровне метеостанции атмосферное давление.
Tmin - Минимальная температура - минимум температуры воздуха на высоте 2 м над землей.
Tmax - Максимальная температура - максимум температуры воздуха на высоте 2 м над землей.
R - Количество осадков - Количество выпавших осадков за период времени, мм. При наведении курсора мыши на число - период времени, за который выпало указанное количество осадков.
R24 - Количество осадков - Количество выпавших осадков за 24 часа, мм.
S - Снежный покров - Высота снежного покрова, см. При наведении курсора мыши на число - состояние снежного покрова и степень покрытия местности в баллах.